Tracking 24120 objects as of 5-Dec-2021
HD Live streaming from Space Station
objects crossing your sky now

MESHBED

Track MESHBED now!
10-day predictions


NORAD ID: 44806
Int'l Code: 2019-081C
Perigee: 494.3 km
Apogee: 512.6 km
Inclination: 97.4 °
Period: 94.5 minutes
Semi major axis: 6874 km
RCS: Unknown
Launch date: November 27, 2019
Source: United States (US)
Launch site: SRIHARIKOTA (SRI)
aabbcc
Your satellite tracking list
Your tracking list is empty




NASA's NSSDC Master Catalog

Two Line Element Set (TLE):
1 44806U 19081C   21338.76096788  .00006157  00000-0  26307-3 0  9999
2 44806  97.4304  40.6501 0013298 178.1661 181.9627 15.23151741112222
Source of the keplerian elements: AFSPC